Tracking 19827 objects as of 21-Aug-2019
HD Live streaming from Space Station
objects crossing your sky now

TITAN 3C TRANSTAGE R/B

Track TITAN 3C TRANSTAGE R/B now!
10-day predictions


NORAD ID: 1863
Int'l Code: 1965-108A
Perigee: 347.7 km
Apogee: 21,362.5 km
Inclination: 26.7 °
Period: 375.0 minutes
Semi major axis: 17226 km
RCS: 10.3335 m2 (large)
Launch date: December 21, 1965
Source: United States (US)
Launch site: AIR FORCE EASTERN TEST RANGE (AFETR)

Note: This is a ROCKET BODY
aabbcc
Your satellite tracking list
Your tracking list is empty




NASA's NSSDC Master Catalog

Two Line Element Set (TLE):
1  1863U 65108A   19233.01149273  .00000523  00000-0  33622-3 0  9992
2  1863  26.6954 199.5838 6099717  25.5400 354.9164  3.83992848271376
Source of the keplerian elements: AFSPC